Regional Weather Roundup
Issued by NWS State College, PA

Home | Current Version | Previous Version | Text Only | Print | Product List | Glossary On
Versions: 1 2 3 4 5 6 7 8 9 10 11 12 13 14 15 16 17 18 19 20 21 22 23 24 25 26 27 28 29 30 31 32 33 34 35 36 37 38 39 40 41 42 43 44 45 46 47 48 49 50
000
ASUS41 KCTP 261510
RWRCTP

REGIONAL WEATHER ROUNDUP
NATIONAL WEATHER SERVICE STATE COLLEGE PA
1100 AM EDT THU APR 26 2018

Note: "fair" indicates few or no clouds below 12,000 feet with no
significant weather and/or obstructions to visibility.

* = STATION THAT DOES NOT REPORT PRECIPITATION /E.G. RAIN...SNOW...ETC/
    THUNDER OR FOG.

PAZ002>004-007>009-013>016-020>023-029>032-261600-
WESTERN PENNSYLVANIA

CITY           SKY/WX    TMP DP  RH WIND       PRES   REMARKS
ERIE           FAIR      44  36  73 W10       29.95R
MEADVILLE      FAIR      47  36  65 N9G17     29.92S
FRANKLIN*      FAIR      46  35  65 N8        29.92S
NEW CASTLE     FAIR      48  36  63 N3        29.95R
BEAVER COUNTY  SUNNY     48  34  57 W5        29.94R
BUTLER*        FAIR      48  35  60 VRB3      29.94R
PITTSBURGH INT FAIR      49  35  58 W5        29.94R
PITTSBURGH     FAIR      47  35  63 SW5       29.93S
INDIANA*       MOSUNNY   48  37  66 VRB3G12   29.95S
LATROBE        PTSUNNY   46  36  66 SW6       29.95S
WASHINGTON CO* FAIR      48  36  63 CALM      29.98R
$$

PAZ004>006-010>012-017>019-024>028-033>037-041-042-045-046-049>053-261600-
CENTRAL PENNSYLVANIA

CITY           SKY/WX    TMP DP  RH WIND       PRES   REMARKS
BRADFORD       FAIR      44  34  67 NW12G18   29.86S
DUBOIS         FAIR      46  35  65 VRB7G18   29.88S
CLEARFIELD     CLOUDY    44  35  70 VRB7      29.90R
JOHNSTOWN      FAIR      45  36  70 NW12      29.88S
ALTOONA          N/A    N/A N/A N/A NW15      29.89S
STATE COLLEGE  PTSUNNY   46  36  66 W14       29.88S
WILLIAMSPORT   FAIR      54  38  54 W16G24    29.83S
SELINSGROVE    PTSUNNY   51  38  60 VRB5G17   29.85R
FT INDIANTOWN  PTSUNNY   54  38  54 NW7G18    29.84R
CAPITAL CITY   FAIR      56  39  53 W12G20    29.86R
HARRISBURG     FAIR      57  41  55 W12       29.85R
YORK           FAIR      56  40  55 NW10      29.86R
$$

PAZ038>040-043-044-047-048-054-055-060>062-067>071-261600-
EASTERN PENNSYLVANIA

CITY           SKY/WX    TMP DP  RH WIND       PRES   REMARKS
SCRANTON       PTSUNNY   54  41  61 NW15      29.78R
MOUNT POCONO   CLOUDY    48  39  71 W17       29.76R
ALLENTOWN      CLOUDY    56  39  53 W10       29.80R
QUAKERTOWN*    MOSUNNY   55  41  58 W12       29.80S
READING        FAIR      57  43  59 NW22G30   29.81R
LANCASTER      FAIR      56  42  59 NW18      29.84R
COATESVILLE    FAIR      55  41  58 NW17      29.83S
POTTSTOWN      FAIR      56  41  57 NW13G18   29.82R
BLUE BELL      FAIR      55  41  58 W9        29.82R
DOYLESTOWN     FAIR      57  41  55 NW16G23   29.78S
WILLOW GROVE   NOT AVBL
NORTH PHILA    FAIR      59  41  51 NW14      29.81R
PHILADELPHIA   FAIR      57  39  51 W9        29.82R
$$




USA.gov is the U.S. government's official web portal to all federal, state and local government web resources and services.